Home   Weather   Rankin Inlet   Past weeks

Flag for Canada Past Weather in Rankin Inlet, Nunavut, Canada — Yesterday and Last 2 Weeks

Now
-18 °F

Snow flurries. Passing clouds.


Feels Like: -37 °F
Forecast: -35 / 6 °F
Wind: 8 mph from South

Location: Rankin Inlet

Current Time: Jan 16, 2017 at 9:22:48 am

Latest Report: Jan 16, 2017 at 9:00 am


Visibility: 10 mi

Pressure: 29.96 "Hg

Humidity: 69%

Dew Point: -26 °F

Location of Rankin InletLocation

Past Weather in Rankin Inlet — Graph

°F

Rankin Inlet Temperature Yesterday

Maximum temperature yesterday: -29 °F (at 2:00 pm)
Minimum temperature yesterday: -35 °F (at 3:00 am)
Average temperature yesterday: -32 °F

High & Low Weather Summary for the Past Weeks

 TemperatureHumidityPressure
High-11 °F (Jan 4, 3:00 am)83% (Jan 6, 11:00 am)30.21 "Hg (Jan 6, 11:00 am)
Low-45 °F (Jan 8, 6:00 pm)57% (Jan 8, 4:00 pm)29.46 "Hg (Jan 1, 8:00 am)
Average-29 °F69%29.93 "Hg
* Reported Jan 1 8:00 am — Jan 16 8:19 am, Rankin Inlet, Weather by CustomWeather, © 2017

Note: Actual official high and low records may vary slightly from our data, if they occured in-between our weather recording intervals... More about our weather records

Advertising

Rankin Inlet Weather History for the Previous 24 Hours

Scroll right to see more
 ConditionsComfort  
Time TempWeatherWind HumidityBarometerVisibility
8:19 am
Mon, Jan 16
-22 °FSnow flurries. Passing clouds.8 mph75%29.97 "Hg15 mi
8:00 am-22 °FSnow flurries. Partly cloudy.8 mph68%29.98 "Hg10 mi
7:00 am-24 °FSnow flurries. Passing clouds.5 mph68%29.99 "Hg10 mi
6:00 am-27 °FSnow flurries. Partly cloudy.5 mph67%30.00 "Hg10 mi
5:49 am-27 °FSnow flurries. Partly cloudy.5 mph67%30.01 "Hg10 mi
5:04 am-29 °FSnow flurries. Passing clouds.2 mph67%30.02 "Hg10 mi
4:00 am-33 °FSnow flurries. Passing clouds.2 mph74%30.02 "Hg15 mi
3:00 am-35 °FSnow flurries. Passing clouds.2 mph73%30.00 "Hg15 mi
2:00 am-35 °FSnow flurries. Clear.8 mph66%30.01 "Hg15 mi
1:00 am-35 °FSnow flurries. Clear.8 mph66%29.99 "Hg15 mi
12:00 am-35 °FSnow flurries. Clear.8 mph66%29.96 "Hg15 mi
11:00 pm
Sun, Jan 15
-35 °FSnow flurries. Clear.9 mph66%29.93 "Hg15 mi
10:00 pm-35 °FSnow flurries. Clear.14 mph66%29.93 "Hg15 mi
9:00 pm-35 °FSnow flurries. Clear.13 mph66%29.91 "Hg15 mi
8:00 pm-33 °FSnow flurries. Clear.13 mph66%29.89 "Hg15 mi
7:00 pm-33 °FSnow flurries. Passing clouds.15 mph74%29.86 "Hg15 mi
6:00 pm-33 °FSnow flurries. Passing clouds.15 mph74%29.84 "Hg15 mi
5:00 pm-29 °FSnow flurries. Passing clouds.15 mph67%29.82 "Hg15 mi
4:00 pm-31 °FSnow flurries. Passing clouds.14 mph67%29.78 "Hg15 mi
3:00 pm-29 °FSnow flurries. Passing clouds.9 mph67%29.76 "Hg15 mi
2:00 pm-29 °FSnow flurries. Scattered clouds.14 mph67%29.75 "Hg15 mi
1:00 pm-31 °FSnow flurries. Passing clouds.12 mph67%29.75 "Hg15 mi
12:00 pm-33 °FSnow flurries. Passing clouds.10 mph66%29.75 "Hg15 mi
11:00 am-33 °FSnow flurries. Scattered clouds.12 mph66%29.73 "Hg15 mi
10:00 am-33 °FSnow flurries. Broken clouds.13 mph66%29.73 "Hg15 mi
9:00 am-31 °FSnow flurries. Passing clouds.9 mph67%29.73 "Hg15 mi
Weather by CustomWeather, © 2017

See weather overviewHow to use our weather pages